Wetbulb
63.73 63.25 62.47 62.39 61.40 59.85 59.88 59.87 61.54 61.61 61.10 61.38 61.16 60.16 59.28 59.18 60.08 62.49 63.00 63.05 65.20 66.13 65.75 65.09 64.22 63.53 62.45 61.58 61.30 59.50 58.33 58.17 57.91 57.55 57.33 57.10 56.74 56.66 56.61 56.38 56.36 56.40 55.93
62.47 62.41 61.60 61.07 60.80 61.18 60.44 60.12 60.78 60.09 59.26 59.89 60.97 60.37 58.76 61.02 62.07 62.02 62.06 62.56 64.18 65.17 65.29 64.86 63.99 63.35 62.46 61.82 60.49 59.07 58.61 57.70 57.70 57.11 56.46 56.05 55.63 55.63 55.64 55.61 55.55 55.40 54.79
59.37 61.27 61.18 60.61 60.76 61.20 60.59 60.68 60.87 60.27 58.85 60.44 60.46 59.07 60.06 61.30 61.36 60.14 61.20 61.73 62.96 62.82 64.27 64.59 63.97 63.40 62.65 61.86 60.29 59.16 58.45 57.87 57.21 56.58 55.80 55.18 54.83 54.65 54.60 54.82 54.31 54.07 54.21
58.84 58.66 60.31 60.09 60.00 60.82 60.83 60.40 59.85 59.30 58.38 59.02 56.89 58.25 59.92 60.40 60.53 59.97 60.87 61.16 61.14 61.42 63.18 63.99 63.73 63.21 62.49 61.48 60.05 59.41 58.14 57.08 56.57 55.73 55.11 54.46 53.99 53.66 53.62 53.57 53.44 53.14 53.57
58.26 58.07 58.41 59.94 59.52 59.41 59.92 59.60 58.87 58.47 56.78 55.72 55.15 54.71 57.67 59.02 60.10 60.47 60.13 59.94 60.05 60.65 60.80 62.54 62.17 61.97 61.88 60.88 60.22 59.48 58.19 56.79 56.07 55.15 54.33 53.64 53.20 52.83 52.78 52.98 52.87 53.10 52.91
55.27 58.06 56.91 57.83 58.68 59.02 58.77 57.75 57.92 57.62 57.19 54.65 52.59 50.40 51.16 53.39 57.50 58.42 58.89 59.90 59.08 59.60 59.74 60.30 59.83 59.45 60.64 60.43 59.78 59.09 58.13 56.65 55.56 54.53 53.69 53.01 52.58 52.26 52.50 52.81 53.04 53.11 53.14
54.09 54.24 55.59 56.17 58.03 58.33 57.45 58.03 57.25 56.24 52.33 52.79 51.45 50.56 50.20 50.27 50.31 52.50 55.89 57.31 57.89 58.81 59.18 59.02 58.40 57.60 58.42 60.06 59.18 58.64 57.84 56.93 55.77 54.45 53.39 52.62 52.28 51.85 52.54 52.89 53.15 53.39 53.37
52.43 54.44 54.37 55.45 56.26 57.67 56.97 56.98 56.38 54.13 52.51 52.89 51.84 51.34 48.76 49.93 50.10 50.03 51.38 55.06 56.30 56.58 57.08 57.74 56.17 54.51 54.92 55.91 55.38 58.48 57.73 57.07 56.08 54.90 53.50 52.58 52.14 52.03 52.61 53.14 53.52 53.34 53.30
51.66 52.37 55.09 55.02 55.51 57.56 55.91 55.25 56.47 55.02 51.38 52.30 53.75 52.02 47.42 47.89 47.56 47.58 47.46 48.64 50.36 53.95 55.53 56.01 55.23 54.19 53.05 51.77 55.45 56.13 57.16 56.03 55.45 54.68 53.34 52.50 52.01 51.77 52.42 52.78 52.85 52.90 52.55
51.18 52.20 54.95 54.61 54.54 55.10 55.32 54.85 56.46 55.62 53.78 51.29 52.09 52.88 51.21 49.41 48.12 45.37 46.64 46.59 46.76 48.98 49.89 52.77 52.18 51.10 49.63 48.96 50.51 51.18 54.55 54.49 53.67 53.19 52.66 51.99 51.68 51.93 52.31 52.23 52.06 51.85 51.32
49.22 51.71 52.84 54.37 54.33 55.70 56.13 55.47 55.57 55.33 54.58 53.55 52.90 50.41 49.57 48.99 48.22 45.73 44.62 44.87 45.53 46.27 46.97 48.28 50.40 48.46 48.07 47.41 46.87 49.64 51.95 51.31 51.89 51.88 51.68 51.34 51.41 51.23 51.29 50.92 50.41 50.25 50.15
48.26 49.78 52.99 53.73 55.01 55.83 55.28 55.06 54.90 54.41 55.12 54.41 53.49 51.58 49.96 48.41 47.51 46.41 43.76 43.47 46.54 45.61 46.27 46.83 45.77 46.33 46.75 46.40 46.86 48.29 49.66 49.62 50.78 50.73 50.28 50.00 49.89 49.12 49.11 48.99 48.76 48.74 49.00
47.80 47.93 49.06 51.42 53.14 54.35 55.48 55.57 54.92 54.62 54.67 54.02 53.43 52.61 52.57 51.07 50.06 48.35 46.33 43.74 43.99 43.29 44.42 45.96 46.07 45.44 46.38 46.04 45.96 47.22 49.02 48.59 49.02 48.72 48.58 48.42 47.25 45.73 45.81 46.36 47.00 47.14 47.16
46.68 47.69 47.62 50.17 52.08 53.56 54.13 54.87 54.99 54.90 54.84 54.39 53.53 53.31 51.92 50.47 49.42 48.80 46.76 44.14 41.04 40.82 41.83 42.92 45.11 44.67 44.96 44.67 45.09 46.87 45.40 47.06 46.80 46.61 46.05 44.99 43.44 43.03 43.44 44.01 44.55 44.81 45.18
45.20 46.35 47.85 49.09 50.73 52.99 53.60 53.99 53.99 53.77 54.01 53.68 53.29 52.56 50.86 49.29 50.18 48.52 48.19 47.34 46.22 39.81 40.44 41.58 41.55 44.37 44.64 44.66 44.89 45.36 42.51 45.72 45.34 44.04 42.60 41.31 41.09 41.32 42.04 42.26 42.43 42.78 43.25
44.86 45.92 47.24 48.75 49.82 52.30 53.07 53.55 53.42 53.52 52.91 53.01 52.91 51.48 50.56 47.91 49.29 48.79 47.31 48.37 47.17 45.28 41.49 40.69 40.89 42.01 43.82 43.86 44.20 40.91 40.34 44.15 43.89 42.40 40.86 39.98 40.12 40.69 41.53 40.64 41.11 41.48 42.03
44.92 45.28 46.95 48.17 50.49 51.50 52.64 53.10 53.19 53.07 52.35 52.15 52.19 51.07 49.89 47.35 46.26 46.86 45.96 47.54 46.52 45.23 40.59 37.62 39.84 40.08 40.36 40.78 41.36 38.14 40.01 37.16 38.31 40.42 39.25 38.81 39.37 40.19 41.05 40.45 40.36 40.83 40.76
44.19 44.39 46.59 48.11 51.69 50.87 52.08 52.14 51.75 51.90 51.43 50.56 50.56 50.11 49.17 48.18 47.98 47.56 47.17 46.48 46.52 44.57 40.40 36.18 38.05 37.44 36.97 37.55 36.12 35.48 35.23 35.39 33.82 37.23 38.33 38.14 38.76 39.46 40.54 40.16 39.61 39.60 39.34
43.10 43.37 44.92 47.27 50.69 50.78 51.34 51.33 51.09 51.09 50.99 50.65 50.45 49.77 48.86 47.73 46.82 46.17 46.50 45.92 45.52 43.40 40.35 37.75 36.11 36.35 35.07 35.12 33.56 33.57 32.81 32.15 33.27 35.65 36.87 36.51 37.54 38.60 38.52 38.41 38.21 38.33 37.63
42.08 42.45 43.51 44.71 50.05 50.14 50.54 50.42 50.38 50.09 50.08 49.88 49.57 49.54 48.34 47.76 46.79 45.34 45.00 44.49 42.60 40.15 38.93 37.21 35.31 34.24 33.96 33.82 33.56 31.57 30.61 31.27 30.75 32.88 34.13 34.41 35.48 35.85 36.56 36.25 36.07 35.91 35.93
41.34 42.04 42.37 43.68 47.96 49.21 49.26 49.26 49.39 49.01 48.25 47.18 46.97 46.80 46.55 46.43 45.86 46.22 44.23 42.27 40.98 38.83 37.01 35.83 33.52 32.96 32.05 31.92 31.70 32.06 31.41 31.23 28.86 28.74 28.23 28.05 27.07 27.02 28.55 30.92 32.53 34.96 36.04
40.60 41.05 41.09 42.07 43.84 47.20 48.49 48.76 48.07 46.46 44.83 43.82 42.66 42.75 43.60 43.79 44.74 45.91 45.05 44.02 42.71 38.77 36.16 34.93 33.73 33.23 31.88 31.97 32.46 31.87 30.04 27.76 25.35 26.29 24.69 24.95 26.20 25.77 26.49 26.70 33.31 34.63 35.67
39.86 39.72 40.07 40.97 41.91 44.53 46.84 48.38 47.22 43.82 42.27 41.67 40.89 41.06 41.20 42.69 43.58 43.62 44.10 43.52 42.58 42.10 40.34 36.79 35.03 34.00 31.96 32.29 31.53 29.03 27.95 26.43 24.36 24.55 24.04 22.65 25.05 24.48 25.75 28.14 31.70 34.48 34.51
38.36 38.58 39.03 40.06 40.80 42.41 44.95 47.04 44.75 41.01 40.05 39.74 40.02 40.49 40.56 40.53 41.40 40.09 35.69 34.10 33.96 34.36 35.10 35.30 33.43 31.89 31.50 31.43 30.82 28.70 26.82 25.03 24.96 25.39 25.30 23.21 24.66 23.80 25.51 25.41 31.75 32.86 33.35
37.75 37.70 39.04 39.76 40.11 41.37 44.05 44.32 40.28 38.25 37.10 36.86 37.81 38.15 38.18 38.57 40.22 38.51 34.03 32.35 32.28 32.99 36.46 36.56 36.09 36.03 35.67 34.67 31.24 28.47 26.36 26.01 23.71 23.82 26.33 24.60 24.58 23.48 23.88 23.95 25.40 31.23 31.77
37.51 38.26 39.03 39.76 40.95 41.40 42.98 41.45 38.54 36.39 34.12 34.03 35.39 37.04 38.96 38.09 39.22 37.57 33.38 32.26 30.48 30.96 31.03 29.66 28.67 29.59 30.89 32.05 32.33 28.42 27.87 23.52 24.24 22.90 26.04 23.43 23.32 22.15 16.96 22.79 23.69 24.00 23.90
MSLP
1016.18 1016.14 1016.39 1016.46 1016.47 1016.91 1017.36 1017.82 1017.87 1018.04 1018.05 1018.14 1018.40 1018.74 1018.95 1018.99 1019.16 1019.38 1019.40 1019.39 1019.58 1020.01 1020.38 1020.81 1021.29 1021.56 1022.13 1022.58 1022.92 1023.23 1023.65 1023.93 1024.06 1024.28 1024.36 1024.44 1024.52 1024.54 1024.56 1024.55 1024.55 1024.51 1024.56
1016.38 1016.36 1016.37 1015.08 1015.83 1017.38 1017.36 1017.55 1017.70 1017.76 1018.10 1018.04 1018.17 1018.41 1018.64 1018.74 1018.83 1018.98 1019.22 1019.36 1019.58 1019.96 1020.32 1020.69 1021.30 1021.59 1022.09 1022.55 1022.94 1023.27 1023.47 1023.90 1024.25 1024.52 1024.69 1024.80 1024.85 1024.86 1024.87 1024.85 1024.79 1024.84 1024.79
1016.52 1016.51 1016.61 1016.48 1016.38 1016.34 1017.64 1017.23 1017.07 1017.66 1017.55 1017.91 1017.94 1018.13 1018.32 1018.49 1018.61 1018.92 1018.98 1019.28 1019.67 1019.93 1020.28 1020.71 1021.10 1021.68 1022.11 1022.45 1022.96 1023.38 1023.70 1023.95 1024.24 1024.51 1024.73 1024.87 1024.89 1024.97 1025.03 1025.07 1025.10 1025.10 1025.04
1016.86 1016.74 1016.71 1016.85 1016.86 1016.96 1017.09 1017.30 1017.04 1017.47 1017.23 1017.51 1017.65 1018.03 1018.19 1018.41 1018.55 1018.82 1018.88 1019.18 1019.73 1020.06 1020.24 1020.65 1021.01 1021.48 1021.91 1022.42 1022.90 1023.40 1023.86 1024.15 1024.36 1024.61 1024.77 1024.88 1024.98 1025.06 1025.04 1025.07 1025.18 1025.19 1025.09
1016.93 1016.91 1016.69 1016.68 1016.89 1017.02 1017.09 1017.34 1017.53 1017.52 1017.48 1017.80 1018.04 1018.24 1018.47 1018.51 1018.30 1018.70 1018.95 1019.08 1019.59 1020.05 1020.34 1020.67 1021.09 1021.47 1021.91 1022.32 1022.83 1023.30 1023.77 1024.14 1024.36 1024.58 1024.81 1024.93 1025.00 1025.09 1025.13 1025.12 1025.13 1025.13 1025.12
1016.99 1016.79 1016.61 1016.59 1016.63 1017.00 1017.20 1017.26 1017.37 1017.44 1017.64 1018.11 1018.62 1018.45 1018.79 1018.65 1018.52 1018.83 1018.89 1018.99 1019.39 1019.90 1020.29 1020.75 1021.04 1021.43 1021.81 1022.11 1022.69 1023.32 1023.63 1024.02 1024.34 1024.59 1024.75 1024.90 1024.96 1025.00 1025.14 1025.07 1025.08 1025.06 1024.97
1016.99 1016.75 1016.49 1016.40 1016.36 1016.57 1016.72 1016.98 1017.49 1017.59 1018.09 1018.41 1018.96 1018.79 1019.13 1019.16 1018.74 1019.06 1019.24 1019.38 1019.52 1019.79 1020.24 1020.54 1021.07 1021.20 1021.62 1022.10 1022.45 1023.02 1023.35 1023.74 1023.96 1024.41 1024.60 1024.81 1024.97 1024.89 1025.03 1024.95 1024.84 1024.84 1024.91
1016.96 1016.54 1016.27 1016.15 1016.13 1016.40 1016.62 1016.90 1017.17 1017.64 1017.71 1017.87 1018.39 1018.70 1018.65 1019.23 1019.38 1019.62 1019.65 1019.79 1019.88 1019.95 1020.16 1020.24 1020.85 1021.29 1021.59 1021.95 1022.22 1022.66 1023.03 1023.39 1023.67 1023.98 1024.37 1024.50 1024.85 1024.69 1024.85 1024.82 1024.69 1024.68 1024.71
1016.88 1016.48 1015.93 1015.78 1015.70 1015.72 1015.92 1016.24 1016.65 1016.98 1017.35 1017.86 1017.57 1017.62 1018.45 1018.87 1019.55 1020.17 1019.94 1020.14 1020.16 1020.07 1019.88 1020.18 1020.52 1020.98 1021.33 1021.80 1022.15 1022.65 1023.24 1023.24 1023.57 1023.87 1024.07 1024.29 1024.57 1024.61 1024.58 1024.63 1024.56 1024.60 1024.72
1016.71 1016.26 1015.71 1015.37 1015.53 1015.43 1015.60 1015.79 1016.12 1016.48 1016.71 1017.04 1017.64 1017.55 1018.07 1018.07 1018.82 1019.95 1020.04 1020.43 1020.48 1020.18 1020.14 1020.29 1020.57 1020.89 1021.42 1021.87 1022.22 1022.77 1023.22 1023.50 1023.59 1023.83 1024.00 1024.18 1024.40 1024.38 1024.48 1024.55 1024.58 1024.62 1024.57
1016.72 1016.06 1015.65 1015.24 1015.26 1015.33 1015.12 1015.30 1015.72 1016.04 1016.27 1016.36 1016.79 1017.45 1017.76 1018.03 1018.85 1018.59 1019.90 1020.55 1020.66 1020.59 1020.56 1020.90 1020.90 1021.02 1021.24 1022.06 1022.36 1022.94 1023.48 1023.61 1023.78 1023.85 1024.15 1024.19 1024.23 1024.36 1024.65 1024.70 1024.54 1024.58 1024.61
1016.69 1016.18 1015.53 1015.00 1014.67 1014.75 1014.87 1015.04 1015.16 1015.47 1015.69 1015.74 1016.10 1016.53 1016.86 1017.53 1017.84 1018.38 1019.50 1019.98 1020.25 1020.76 1020.81 1021.11 1021.08 1021.51 1021.53 1021.92 1022.53 1023.20 1023.57 1023.53 1023.74 1024.08 1024.04 1024.23 1024.44 1024.51 1025.07 1024.93 1024.68 1024.58 1024.53
1016.61 1016.17 1015.84 1015.29 1014.76 1014.39 1014.37 1014.48 1014.71 1014.78 1014.90 1015.33 1015.49 1015.96 1016.28 1016.82 1017.16 1017.83 1018.75 1019.24 1019.83 1020.70 1020.95 1021.08 1021.11 1021.61 1021.98 1021.98 1022.60 1023.29 1023.56 1023.59 1023.82 1023.92 1024.21 1024.23 1024.78 1025.04 1025.13 1025.11 1024.98 1024.84 1024.71
1016.67 1016.12 1015.68 1015.20 1014.58 1014.09 1013.96 1013.95 1014.19 1014.30 1014.43 1014.72 1015.06 1015.59 1015.78 1016.37 1016.65 1017.06 1017.91 1018.47 1019.94 1020.35 1020.77 1020.91 1021.15 1021.40 1021.61 1022.21 1022.73 1023.36 1023.71 1023.80 1023.86 1024.01 1024.30 1024.61 1025.08 1025.16 1025.26 1025.21 1025.08 1024.92 1024.92
1016.45 1015.84 1015.26 1014.78 1014.24 1013.72 1013.47 1013.49 1013.69 1013.78 1013.96 1014.13 1014.49 1014.91 1015.33 1015.87 1016.24 1016.65 1017.10 1017.51 1017.92 1019.66 1020.26 1020.55 1020.98 1021.19 1021.60 1021.99 1022.52 1023.12 1023.53 1023.75 1023.97 1024.29 1024.56 1024.95 1025.06 1025.06 1025.09 1025.12 1025.09 1024.94 1025.17
1015.99 1015.42 1014.77 1014.16 1013.55 1013.10 1012.78 1012.81 1012.94 1013.26 1013.51 1013.68 1013.93 1014.37 1014.73 1015.35 1015.80 1016.18 1016.75 1017.08 1017.61 1018.16 1019.47 1020.02 1020.57 1020.82 1021.38 1021.88 1022.44 1022.99 1023.51 1023.82 1024.05 1024.42 1024.75 1024.88 1024.93 1024.94 1024.99 1025.07 1025.08 1024.85 1025.20
1015.57 1014.88 1014.17 1013.51 1012.76 1012.42 1012.21 1012.17 1012.13 1012.47 1012.79 1013.07 1013.47 1013.92 1014.28 1014.92 1015.42 1015.97 1016.31 1016.74 1017.15 1017.81 1018.94 1020.20 1020.56 1020.87 1021.38 1021.75 1022.29 1023.00 1023.51 1023.86 1024.13 1024.42 1024.66 1024.78 1024.82 1024.77 1024.75 1024.96 1024.86 1024.93 1024.84
1015.07 1014.39 1013.57 1012.79 1011.83 1011.58 1011.54 1011.68 1011.74 1011.75 1012.19 1012.62 1013.10 1013.48 1014.00 1014.50 1014.95 1015.43 1015.99 1016.18 1016.83 1017.46 1018.42 1019.66 1020.49 1020.81 1021.50 1021.86 1022.27 1023.00 1023.58 1023.85 1024.14 1024.34 1024.47 1024.56 1024.54 1024.59 1024.73 1024.72 1024.69 1024.76 1024.66
1014.67 1013.87 1013.21 1012.16 1011.12 1010.79 1011.07 1011.12 1011.32 1011.40 1011.70 1012.14 1012.45 1013.19 1013.45 1014.04 1014.62 1015.06 1015.61 1016.11 1016.70 1017.22 1018.00 1018.79 1020.26 1020.81 1021.72 1022.08 1022.74 1023.27 1023.73 1023.97 1024.21 1024.30 1024.33 1024.54 1024.56 1024.52 1024.57 1024.46 1024.52 1024.37 1024.38
1014.34 1013.43 1012.67 1011.93 1010.80 1010.58 1010.41 1010.73 1010.77 1010.98 1011.45 1011.84 1012.17 1012.59 1013.10 1013.73 1014.15 1014.81 1015.33 1015.88 1016.56 1017.25 1017.99 1018.85 1019.97 1020.74 1021.49 1022.37 1022.80 1023.34 1023.85 1024.01 1024.31 1024.36 1024.45 1024.60 1024.52 1024.43 1024.39 1024.50 1024.40 1024.39 1024.36
1013.91 1013.12 1012.43 1011.65 1010.67 1010.10 1010.02 1010.20 1010.36 1010.66 1011.05 1011.58 1012.03 1012.38 1012.87 1013.31 1013.80 1014.30 1014.86 1015.79 1016.37 1017.22 1017.97 1018.77 1019.68 1020.61 1021.49 1022.23 1022.67 1023.13 1023.63 1024.16 1024.79 1024.74 1024.77 1024.89 1024.86 1024.94 1024.69 1024.67 1024.57 1024.33 1024.04
1013.44 1012.69 1012.07 1011.44 1010.55 1009.88 1009.60 1009.84 1010.01 1010.41 1010.79 1011.45 1012.05 1012.56 1012.95 1013.39 1013.82 1014.36 1014.87 1015.40 1015.95 1016.55 1017.70 1018.62 1019.44 1020.17 1021.03 1021.75 1022.38 1023.07 1023.70 1024.37 1024.94 1024.97 1024.91 1024.80 1024.81 1024.77 1024.69 1024.68 1024.41 1023.95 1023.71
1013.01 1012.29 1011.63 1011.06 1010.71 1009.93 1009.71 1009.67 1009.91 1010.26 1010.92 1011.50 1012.01 1012.48 1013.12 1013.49 1013.88 1014.52 1015.16 1015.81 1016.36 1016.91 1017.44 1017.91 1018.68 1019.72 1020.72 1021.19 1021.95 1023.16 1023.44 1023.91 1024.57 1025.05 1024.93 1024.82 1024.82 1024.74 1024.63 1024.28 1024.25 1023.84 1023.74
1012.60 1011.97 1011.34 1010.83 1010.29 1009.90 1009.71 1009.58 1009.99 1010.57 1011.20 1011.65 1012.14 1012.66 1012.98 1013.69 1014.09 1014.69 1015.64 1016.47 1017.13 1017.52 1017.85 1018.23 1018.95 1019.71 1020.21 1021.00 1021.63 1022.31 1023.10 1024.12 1024.74 1024.94 1024.96 1025.02 1024.98 1024.73 1024.30 1024.39 1024.05 1023.78 1023.73
1012.17 1011.65 1011.01 1010.42 1010.15 1009.84 1009.58 1009.71 1010.23 1010.87 1011.56 1012.12 1012.63 1012.92 1013.35 1013.82 1014.51 1015.16 1015.86 1016.82 1017.72 1018.23 1018.53 1018.94 1019.56 1020.07 1020.58 1021.34 1021.97 1022.51 1023.49 1024.03 1024.78 1025.05 1025.11 1025.13 1025.23 1024.92 1024.68 1024.49 1024.09 1023.75 1023.45
1011.84 1011.28 1010.64 1010.19 1009.93 1009.65 1009.71 1010.11 1010.62 1011.09 1011.76 1012.46 1013.10 1013.51 1013.91 1014.21 1015.12 1015.74 1016.11 1016.95 1017.98 1019.03 1019.30 1020.13 1020.96 1021.52 1021.72 1022.07 1022.45 1022.86 1023.40 1024.09 1024.58 1025.11 1025.15 1025.49 1025.47 1025.36 1025.10 1024.35 1023.97 1023.73 1023.75
Wind_Speed
3 2 2 2 2 3 4 3 3 3 5 5 5 5 6 6 6 4 4 13 14 17 18 18 18 19 17 15 16 13 11 11 10 9 9 9 8 8 8 8 8 7 7
2 3 2 2 4 4 2 1 4 5 4 4 5 6 6 5 6 6 5 7 14 17 17 19 18 18 17 17 16 15 14 12 11 9 8 7 6 6 6 6 6 6 4
1 3 2 4 6 8 8 4 6 3 4 4 6 6 4 5 5 5 6 5 7 14 17 20 20 20 18 16 14 14 14 13 12 10 9 7 6 5 5 5 5 5 4
3 3 3 3 4 5 5 6 3 4 3 4 4 4 5 5 6 5 6 6 6 6 11 17 19 20 20 17 15 15 13 12 11 10 8 7 5 4 3 3 3 2 3
5 4 3 4 3 3 3 4 3 2 2 2 3 2 2 4 7 6 7 8 7 6 4 12 16 17 18 17 16 16 15 13 11 10 8 6 4 2 1 1 0 1 2
6 5 4 4 6 4 3 2 2 1 2 3 3 4 2 2 3 2 6 7 7 8 6 7 8 9 16 17 17 16 16 14 11 9 7 5 3 2 2 2 3 3 4
5 5 4 4 4 6 7 6 1 6 2 3 3 2 3 3 4 3 1 2 5 7 8 9 6 6 9 17 19 18 16 15 13 10 8 5 3 2 3 4 4 6 6
6 5 5 5 5 6 6 7 6 2 2 7 3 2 2 2 2 3 2 1 2 4 6 10 9 7 7 7 9 18 17 16 14 12 10 7 5 3 4 5 6 5 7
8 6 6 5 6 4 5 6 7 8 4 5 6 4 3 3 2 2 1 1 2 2 4 7 9 8 6 5 8 10 12 13 12 11 9 7 6 4 5 5 5 7 8
9 8 7 4 5 3 5 7 6 6 5 7 1 2 2 4 3 2 1 1 0 2 3 2 6 7 6 5 7 8 8 8 11 9 9 7 6 5 5 5 6 7 7
7 10 7 5 5 5 6 7 7 9 5 5 6 3 2 2 2 4 3 3 0 1 2 0 2 3 6 5 5 6 6 10 10 9 8 7 6 4 4 5 5 7 8
6 7 9 7 5 4 4 5 9 10 9 6 6 4 4 4 2 3 2 1 3 2 2 2 3 1 5 6 7 8 10 10 10 8 7 5 4 2 5 6 7 7 8
7 8 9 10 8 6 6 7 7 8 9 9 8 7 6 5 3 3 3 2 3 2 2 2 4 4 3 4 5 9 10 10 8 7 6 4 1 2 4 6 7 8 8
9 10 11 11 12 9 7 7 7 7 8 9 10 7 5 5 4 4 4 4 2 1 1 2 2 5 5 4 5 11 5 10 8 6 4 1 1 3 4 4 7 8 9
11 13 14 13 14 10 8 9 8 8 8 10 9 10 6 5 5 4 4 3 5 5 7 4 3 5 5 6 8 7 5 10 8 6 4 3 2 3 3 4 6 7 9
12 12 13 14 13 11 9 10 9 9 9 6 6 8 7 4 6 5 4 4 1 4 3 2 2 3 6 5 8 6 6 10 9 7 5 3 3 4 4 4 6 7 10
12 13 13 14 12 11 9 8 10 11 11 8 8 9 8 7 5 5 4 4 5 3 3 1 2 3 4 8 7 5 6 4 4 6 4 3 4 6 5 6 7 9 9
12 13 13 15 11 11 9 9 9 9 10 9 9 8 9 6 7 6 6 6 6 4 4 5 2 2 2 5 6 7 4 3 3 5 5 4 5 6 6 7 8 8 8
12 13 13 14 9 5 6 8 9 8 8 9 10 9 7 8 7 5 5 6 5 4 3 4 3 2 2 3 4 4 3 3 2 4 3 2 2 3 5 7 7 7 7
13 12 12 13 11 7 7 8 8 8 8 8 8 8 8 10 9 8 6 7 6 6 5 6 4 4 3 3 3 3 2 1 1 1 1 2 3 4 4 5 5 7 8
13 11 12 12 11 5 4 6 8 8 8 6 5 6 6 8 10 10 7 7 9 6 6 6 4 3 3 4 4 3 2 3 1 1 0 1 1 1 1 4 5 8 9
13 11 10 10 10 5 7 10 8 6 5 7 6 5 5 8 9 14 13 15 13 10 8 5 3 6 4 4 3 4 3 3 2 1 0 1 1 1 2 2 8 8 6
11 11 10 8 10 6 7 8 11 6 6 6 7 7 6 4 9 7 11 12 10 8 8 4 9 5 5 5 7 4 2 2 3 1 1 1 1 2 2 3 8 5 9
11 9 10 9 7 6 8 7 12 7 6 7 7 7 8 8 9 12 12 11 9 8 6 6 7 6 5 7 6 4 5 5 4 3 2 1 2 2 3 3 3 6 11
9 8 9 8 6 6 8 14 10 8 8 8 7 8 9 10 19 22 14 14 12 12 17 21 19 17 16 14 10 6 3 4 2 1 2 1 2 3 2 3 2 10 13
9 7 6 5 8 3 13 13 11 8 10 8 7 10 16 15 21 20 15 14 14 10 12 11 9 11 11 11 11 5 3 3 2 1 2 1 2 3 4 2 3 3 3
Wind_Direction
283 247 283 253 153 149 149 168 169 171 185 189 187 179 180 185 188 179 184 185 177 171 163 155 153 148 150 147 143 141 141 143 132 129 121 116 113 110 104 96 87 73 74
39 356 180 131 59 20 240 92 215 173 217 190 204 191 192 183 178 170 179 183 177 165 167 157 157 151 153 153 150 150 151 145 135 129 119 111 106 103 97 91 76 67 68
149 160 199 158 162 167 227 202 196 220 181 202 196 188 183 172 162 172 163 162 171 166 168 168 163 158 156 159 157 158 149 146 142 138 131 125 121 112 103 90 76 60 29
297 166 172 193 196 191 214 216 191 213 163 200 164 199 174 165 162 165 149 145 152 163 166 175 165 162 161 158 164 160 154 152 149 146 142 137 131 128 126 120 96 57 29
335 281 206 188 189 216 188 201 224 209 154 141 153 131 172 163 165 163 161 147 151 154 144 178 171 166 160 166 167 165 164 161 158 155 152 144 137 145 170 196 335 313 352
328 313 263 224 181 186 215 243 211 189 189 152 121 99 38 63 106 171 171 165 150 153 143 170 162 171 165 172 172 173 168 166 164 163 161 160 160 172 245 267 272 283 307
329 316 287 247 205 204 212 202 208 201 109 144 128 83 58 20 65 81 41 164 158 161 165 160 165 168 172 173 173 178 176 172 169 171 170 174 191 207 251 263 275 286 301
310 306 283 252 211 194 188 197 172 186 132 174 156 228 133 46 31 18 41 40 154 162 172 169 173 166 174 180 175 180 182 178 176 176 180 180 203 217 265 278 291 303 307
305 288 280 246 220 195 191 184 195 196 173 203 220 143 151 181 147 358 80 1 148 215 176 183 179 174 161 152 163 173 188 183 186 185 183 188 200 228 248 265 287 303 312
312 303 288 267 239 210 188 198 195 204 182 175 239 145 305 132 180 155 45 173 277 140 352 198 186 156 148 137 135 138 167 186 192 194 194 195 217 227 252 281 303 303 303
306 306 287 275 234 227 204 188 198 209 204 182 181 153 165 63 252 107 156 192 223 161 87 27 175 138 136 129 112 121 166 193 201 199 207 214 225 248 279 284 293 299 300
306 305 313 297 254 221 213 210 199 202 206 202 189 183 175 178 179 122 128 136 199 167 140 100 94 98 135 128 131 159 194 201 209 208 211 230 255 274 289 307 307 305 303
308 305 316 305 292 245 219 207 214 209 201 205 199 195 206 191 170 132 155 146 136 135 170 186 137 134 111 120 142 174 201 202 204 205 222 228 253 302 312 309 315 312 313
300 301 296 289 283 258 235 211 221 221 208 205 197 206 188 187 160 152 143 152 118 161 174 159 139 163 153 141 157 188 202 201 199 208 212 175 257 301 301 306 315 317 316
297 292 289 285 281 263 233 214 215 212 208 202 199 190 184 185 192 168 154 175 149 169 214 190 168 183 176 165 181 177 167 185 195 191 181 194 258 277 266 292 307 312 307
299 290 287 281 268 260 240 213 201 211 204 204 193 192 185 171 186 177 171 175 171 147 169 126 200 143 171 163 182 161 167 178 183 192 196 214 257 266 231 280 302 306 301
297 294 286 285 260 253 239 222 202 197 198 195 194 188 185 168 175 177 167 179 162 144 132 103 84 124 156 161 152 140 151 146 165 192 200 227 264 268 233 264 293 297 296
301 303 297 288 261 243 233 219 205 190 190 185 187 179 190 170 177 177 183 185 174 159 131 138 131 130 131 144 137 136 150 154 146 202 218 240 272 268 240 266 293 292 291
300 305 298 298 266 225 216 206 213 197 188 190 182 190 185 172 178 170 181 176 168 146 127 137 136 102 105 136 117 106 147 115 172 209 198 281 260 258 263 283 289 287 310
300 304 305 304 264 238 226 210 198 185 191 188 180 182 176 186 180 172 169 167 144 138 127 131 114 117 106 96 105 129 138 106 129 140 101 261 274 283 287 296 326 308 301
300 300 298 295 288 229 214 200 204 187 176 169 174 166 171 177 174 170 157 156 146 141 137 140 125 119 128 146 177 143 127 125 89 116 246 270 335 335 341 347 314 307 310
297 297 293 291 301 276 226 207 175 168 155 157 155 144 142 150 158 164 164 164 166 154 152 139 129 158 132 128 120 145 126 153 192 336 50 292 100 301 292 280 302 314 320
296 294 294 293 276 275 261 223 167 151 148 152 143 145 131 147 141 137 146 141 139 140 148 135 154 149 140 156 135 144 143 115 132 305 68 286 34 307 261 323 303 294 346
295 295 292 282 281 271 258 239 147 128 128 128 134 141 135 134 132 123 108 94 82 76 85 95 100 109 113 131 132 141 134 110 96 71 30 321 1 278 338 301 272 14 344
294 290 287 278 263 263 252 143 126 117 112 107 114 117 126 121 133 132 117 109 100 90 92 97 99 106 109 116 121 115 120 126 104 98 24 19 349 298 308 281 288 343 353
291 291 290 287 260 152 129 137 132 126 118 113 105 114 124 124 135 130 118 120 109 108 105 87 72 67 67 84 77 67 120 123 117 79 348 113 339 4 329 279 299 326 338